Powrót do katalogu

FENGYUN 1C DEB

AktywnySSO
NORAD 31989·DEBRIS·🇨🇳 China

Wystrzelony May 10, 1999 z Taiyuan Satellite Launch Center

Loading…

Następne Przeloty (najbliższe 24 godziny)

TLE

ŚwieżeSource: Space-Track

Epoka: Sep 14, 2026, 10:18 UTC

1 31989U 99025CPS 26257.42982622  .00000284  00000-0  23596-3 0  9994
2 31989  99.1804 322.1360 0114913 269.6095 102.9674 13.93952612975580

Śledź FENGYUN 1C DEB w czasie rzeczywistym z AllMySat

Download on the App Store